SCP
0 1 1 1 0 0 0 0 0 0 0 0 0 0 0 1 1 1 1 1 1 1 1 1 1 1 1 1 1 1 1 0 0 0 0 0 0 0 0 0 0 0 0
1 1 1 0 0 0 0 0 0 0 0 0 0 0 1 1 1 1 1 1 1 1 1 1 1 1 1 1 1 1 1 1 1 1 0 0 0 0 0 0 0 0 0
1 1 0 0 0 0 0 0 0 0 0 0 0 0 1 1 1 1 1 1 1 1 1 1 1 1 1 1 1 1 1 1 1 1 1 1 1 0 0 0 0 0 0
0 0 0 0 0 0 0 0 0 0 0 0 0 0 1 1 1 1 1 0 0 0 0 1 1 1 1 1 1 1 1 1 1 1 1 1 1 1 1 1 1 1 0
0 0 0 0 0 0 0 0 0 0 0 0 0 0 0 1 0 0 0 0 0 0 0 0 1 1 1 1 1 1 1 1 1 1 1 1 1 1 1 1 1 1 0
0 0 0 0 0 0 0 0 0 0 0 0 0 0 0 0 0 0 0 0 0 0 0 0 0 1 1 1 1 1 1 1 1 1 1 1 1 1 1 1 1 1 0
0 0 0 0 0 0 0 0 0 0 0 0 0 0 0 0 0 0 0 0 0 0 0 0 0 0 0 1 1 1 1 1 1 1 1 1 1 1 1 1 1 0 0
0 0 0 0 0 0 0 0 0 0 0 0 0 0 0 0 0 0 0 0 0 0 0 0 0 0 0 0 0 0 1 1 1 1 1 1 1 1 1 1 1 0 0
0 0 0 0 0 0 0 0 0 0 0 0 0 0 0 0 0 0 0 0 0 0 0 0 0 0 0 0 0 0 0 0 0 0 1 1 1 1 1 1 1 1 1
0 0 0 0 0 0 0 0 1 1 0 0 0 0 0 0 0 0 0 0 0 0 0 0 0 0 0 0 0 0 0 0 0 0 1 1 1 1 1 1 1 0 1
0 0 0 0 0 0 0 1 1 1 1 0 0 1 1 1 0 0 0 0 0 0 0 0 0 0 0 1 1 1 1 0 0 0 0 0 1 1 1 1 1 0 0
0 0 1 1 0 1 1 1 1 1 1 1 1 1 1 1 1 1 1 0 0 0 0 1 1 1 1 1 1 1 1 0 0 0 0 0 0 0 1 1 1 1 1
0 0 1 1 1 1 1 1 1 1 1 1 1 1 1 1 1 1 1 1 1 1 1 1 1 1 1 1 1 1 1 1 0 0 0 0 0 1 1 1 1 1 1
0 0 1 1 1 1 1 1 1 1 2 2 2 2 2 2 2 2 2 2 1 1 1 1 1 1 1 1 1 1 1 1 0 0 0 0 0 1 1 1 1 1 0
0 1 1 1 1 1 1 1 1 1 2 2 2 2 2 2 3 3 3 3 2 2 2 1 1 1 1 1 1 1 1 0 0 0 0 0 1 1 1 1 1 0 0
1 1 1 1 1 1 1 1 1 1 1 2 2 2 2 2 3 3 3 3 3 3 3 2 2 1 1 1 1 1 1 1 1 1 1 1 1 1 1 1 0 0 0
1 1 1 1 1 1 1 1 1 1 1 2 2 2 2 2 3 3 4 3 4 4 3 3 3 2 2 2 1 1 1 1 1 1 1 1 1 1 1 0 0 0 0
2 2 2 2 1 1 1 1 1 1 1 2 2 2 2 2 3 3 3 3 3 3 3 3 3 3 2 2 2 2 2 2 2 1 1 1 1 1 0 0 0 0 0
2 2 2 2 2 2 2 2 2 2 2 2 2 2 2 2 3 3 3 3 3 3 3 3 3 3 3 3 3 3 3 3 3 2 2 1 1 1 0 0 0 0 0
2 2 2 2 3 3 3 3 2 2 2 3 3 2 2 3 3 3 4 4 4 4 4 4 4 4 5 5 5 5 4 4 4 4 3 3 2 1 0 0 0 0 0
2 2 2 3 3 3 3 3 3 3 3 4 4 3 3 3 3 3 3 4 4 4 5 5 6 6 6 7 7 7 6 6 5 5 5 4 3 1 0 0 0 0 0
2 3 3 3 4 3 3 3 3 4 4 4 4 4 3 3 3 3 2 2 3 3 4 5 5 6 6 6 7 7 7 6 6 6 5 4 3 1 1 0 0 0 0
3 3 4 4 5 4 3 2 2 3 3 3 3 3 3 3 2 2 2 1 1 1 2 3 3 4 4 5 5 5 5 5 5 5 4 4 3 1 1 0 0 0 0
4 4 5 5 5 4 3 2 2 2 2 3 3 3 3 3 2 2 2 1 1 1 1 2 2 3 3 3 3 2 2 3 4 4 4 3 2 1 1 0 0 0 0
5 5 5 5 5 5 4 3 2 2 3 3 3 3 3 2 2 1 2 2 2 2 2 2 2 2 2 2 2 2 1 2 3 4 3 3 2 1 1 0 0 0 0
5 5 5 5 6 6 5 3 2 3 4 4 4 3 2 2 2 1 1 2 2 2 2 2 1 1 1 1 1 1 1 1 2 3 3 2 1 1 1 0 0 0 0
Wind_Speed
2 2 2 2 2 2 2 2 2 3 3 3 3 3 3 3 3 2 2 6 7 7 7 7 7 7 7 7 7 7 7 7 6 6 6 6 6 6 6 5 5 5 5
3 2 2 2 2 2 2 2 2 2 2 2 3 2 3 3 3 2 2 4 6 6 6 7 7 7 6 6 7 6 6 6 6 6 6 6 6 6 6 6 6 6 5
3 2 2 2 1 2 2 2 3 2 2 3 3 2 2 2 2 2 2 2 2 5 6 6 6 6 6 6 6 6 6 6 6 5 5 5 5 5 6 5 5 6 5
3 3 2 1 2 2 2 2 2 3 3 3 2 2 2 1 1 2 1 1 1 2 3 5 6 6 6 6 6 6 6 6 6 6 6 6 6 6 5 5 5 5 5
4 3 2 2 2 2 2 2 2 2 3 3 2 2 1 1 0 1 1 2 1 1 1 2 4 5 6 6 6 6 7 6 6 6 6 7 6 6 6 6 5 5 5
4 3 2 2 3 2 2 2 3 3 2 2 2 2 1 1 0 0 2 2 2 2 2 2 2 2 4 4 5 6 6 6 6 6 6 6 6 6 6 6 5 5 5
4 3 3 2 3 3 3 4 3 4 2 2 2 2 2 2 1 0 1 1 2 2 2 2 1 1 1 2 3 4 5 5 5 6 6 5 5 5 5 5 6 6 6
3 3 3 3 3 3 3 3 3 3 2 2 2 2 1 2 2 1 0 1 1 1 1 2 2 2 1 1 1 2 3 3 3 3 4 4 4 4 4 4 5 5 6
3 3 4 3 3 3 3 3 3 4 3 1 1 2 2 1 1 1 1 1 0 1 1 1 2 2 2 1 1 1 1 1 0 1 2 3 3 4 4 5 5 5 5
2 3 3 3 3 3 3 3 3 3 4 2 1 1 1 2 2 0 1 1 0 1 1 1 2 2 2 1 1 0 1 1 1 1 2 1 1 1 2 2 3 3 3
2 2 3 3 3 3 3 3 3 3 3 3 2 2 1 1 1 2 1 1 0 0 1 1 1 1 2 2 1 1 1 1 2 2 2 1 1 1 1 1 2 2 2
1 2 3 3 3 3 3 3 3 4 3 3 3 2 3 2 3 3 2 1 1 1 1 1 1 2 2 2 3 3 3 2 2 2 1 1 1 1 1 0 0 1 1
1 2 3 3 3 3 3 3 3 3 4 4 4 3 3 3 3 3 2 2 1 1 1 1 2 2 2 2 2 4 3 3 3 2 2 1 1 1 1 0 0 0 0
3 3 3 4 4 4 4 3 3 3 3 4 4 4 3 3 3 3 3 3 2 1 2 2 1 2 2 2 3 3 3 4 4 3 3 3 2 2 1 1 1 0 0
3 3 3 3 3 4 4 4 3 3 3 4 4 4 3 3 3 3 3 4 4 3 3 2 2 1 2 2 2 2 2 3 4 4 4 4 4 3 2 2 1 1 0
3 3 3 3 3 3 4 4 3 3 3 3 3 4 4 3 3 3 4 3 3 3 3 2 2 1 2 2 3 3 2 3 3 4 4 5 5 4 3 3 2 2 1
4 4 4 3 4 4 4 4 4 4 4 4 4 4 4 3 3 3 3 3 3 3 3 2 1 1 2 3 2 2 2 2 2 3 4 5 5 4 4 3 3 3 3
4 4 3 3 4 4 4 4 5 4 5 5 4 4 5 3 4 3 3 4 3 3 3 3 1 1 2 3 2 2 2 2 2 3 4 5 5 5 4 4 4 3 3
3 3 3 4 4 4 4 5 5 5 5 5 5 5 5 4 4 4 4 4 3 3 3 3 2 1 1 1 2 2 2 2 2 3 4 5 5 5 5 5 5 4 4
4 4 4 4 4 4 4 4 5 4 4 4 4 5 5 5 6 5 4 4 4 3 2 2 2 1 1 1 2 2 2 2 2 3 3 3 4 6 6 6 6 6 6
4 4 3 4 4 4 4 5 5 5 4 4 4 5 5 6 6 5 4 4 4 3 3 3 2 2 2 3 3 3 3 2 3 3 3 3 3 4 5 6 7 7 7
3 3 3 4 4 4 4 6 5 4 4 5 5 5 4 5 6 6 7 7 7 6 5 4 4 4 5 4 3 3 3 3 3 3 3 4 3 4 4 5 6 8 8
3 4 4 4 5 5 6 6 7 5 5 5 5 4 3 3 4 4 4 6 7 8 9 7 6 7 6 6 6 5 5 5 5 3 3 4 3 5 5 5 8 9 9
3 4 4 4 4 5 6 6 6 5 4 4 4 5 5 4 4 5 4 4 5 6 7 7 7 7 6 6 7 6 5 4 3 3 4 4 4 4 4 5 8 10 10
3 3 3 4 4 4 4 5 4 3 3 5 5 5 5 6 6 6 5 5 5 5 5 7 7 6 6 7 6 4 4 4 4 4 5 4 3 3 3 4 6 9 9
3 3 2 2 3 4 3 4 4 3 4 4 4 4 6 7 6 7 6 6 6 5 4 4 4 5 6 7 9 8 6 5 4 4 5 5 3 2 3 2 3 4 5
Wind_Direction
107 97 91 86 83 88 92 92 88 82 82 87 97 110 123 133 140 151 164 182 185 183 182 182 185 185 186 186 190 190 191 194 193 191 196 200 201 203 203 208 211 210 206
123 118 106 96 93 101 103 103 98 91 86 91 85 90 109 122 127 143 156 175 178 180 183 185 188 187 189 190 194 191 195 197 194 196 202 207 207 206 209 212 214 214 209
135 135 130 124 119 113 108 102 95 93 98 97 90 90 103 120 128 140 149 165 177 185 189 196 195 196 198 197 195 198 203 202 202 204 209 210 207 207 210 212 213 213 214
139 135 141 145 128 115 113 114 107 98 90 94 88 73 80 96 127 145 152 162 169 190 204 207 205 205 209 210 205 207 208 210 210 214 218 218 216 211 207 213 216 215 219
142 137 143 144 131 120 120 126 107 111 107 98 85 70 70 88 110 161 171 187 190 194 210 216 214 216 220 223 222 220 218 221 221 221 223 220 217 211 210 215 217 218 220
147 141 140 137 130 121 119 120 116 107 113 110 89 63 40 28 62 172 208 198 200 207 214 224 229 229 226 228 234 234 232 232 228 223 224 222 216 211 214 217 221 225 226
150 146 146 139 139 141 146 140 126 121 117 114 97 61 26 32 52 255 210 199 208 208 195 205 214 223 239 251 254 252 251 245 233 224 221 218 216 214 215 220 224 228 230
160 159 154 151 143 137 138 144 140 133 142 137 126 110 39 6 16 35 72 191 202 186 199 202 188 187 200 233 277 268 263 255 241 220 208 204 207 209 213 223 232 236 240
164 157 162 155 152 153 163 169 161 156 160 150 144 146 149 202 312 358 24 51 133 173 195 197 193 189 191 207 253 292 296 41 242 180 183 192 203 214 221 232 240 238 240
164 164 162 162 163 162 171 184 172 160 152 164 155 145 152 154 158 255 338 359 20 195 204 196 188 188 188 188 191 172 123 100 89 94 102 120 148 180 214 225 241 244 229
178 177 174 168 172 174 181 186 168 167 166 169 169 157 140 123 152 173 236 283 327 275 226 214 195 194 194 192 194 196 178 138 124 116 112 116 125 129 119 215 240 242 233
196 199 188 185 187 185 189 193 184 179 183 181 181 174 170 172 182 179 202 235 256 272 240 218 207 205 202 200 203 194 188 168 146 135 135 131 137 152 161 171 195 250 255
207 214 200 195 196 196 196 192 189 195 192 191 196 199 199 199 175 167 171 201 235 257 251 228 218 207 203 197 199 194 188 176 173 169 169 171 188 189 185 190 294 288 288
214 207 198 201 202 195 195 190 194 205 199 205 212 207 206 210 192 180 175 174 203 245 242 240 217 209 205 197 193 193 195 189 188 188 185 181 178 183 189 208 263 281 329
211 201 194 199 200 198 195 187 199 208 199 208 216 212 213 215 203 199 188 184 181 212 240 220 214 205 196 185 182 185 197 197 197 199 200 195 188 188 195 203 203 200 210
212 204 201 199 200 201 197 194 205 214 211 219 215 214 216 216 206 200 199 199 192 193 222 214 207 199 192 183 177 186 193 192 202 206 207 202 196 195 198 203 211 214 219
202 206 208 201 201 204 201 203 215 212 217 227 226 220 227 213 209 204 195 195 196 186 215 237 202 193 189 191 187 192 193 199 214 214 212 209 204 201 202 209 220 219 216
208 208 203 203 209 212 208 210 223 222 221 228 230 226 232 219 213 208 198 199 198 192 196 221 214 198 207 197 192 199 206 212 226 221 217 216 212 209 209 212 222 227 223
211 209 202 208 216 215 215 218 221 222 224 230 229 228 231 217 222 215 208 207 203 196 189 198 210 199 202 182 184 210 216 229 232 228 223 223 219 222 225 225 225 227 224
211 213 213 214 216 219 220 221 222 223 226 230 230 228 226 221 224 217 213 210 198 190 186 190 204 207 204 180 187 210 223 227 238 235 234 228 226 231 232 230 228 226 225
223 221 218 224 220 220 223 221 225 227 229 235 236 234 232 225 223 215 212 202 192 193 192 200 211 212 210 195 208 205 220 234 244 229 233 234 231 234 232 233 230 228 226
216 211 222 227 227 231 232 224 220 229 232 236 241 240 235 230 225 216 212 199 191 194 203 206 214 220 224 217 206 203 205 215 240 212 215 240 223 236 237 235 232 229 227
211 213 222 227 235 241 234 229 223 223 231 235 237 234 234 230 212 214 213 207 210 211 206 205 214 222 220 211 199 206 210 218 231 202 198 237 222 238 238 234 227 229 228
218 227 229 229 235 246 235 233 227 228 234 232 230 223 222 232 220 203 205 217 228 229 222 217 221 225 223 212 203 208 215 224 238 212 197 230 223 235 243 235 226 223 225
226 230 231 229 231 246 233 228 216 217 232 239 237 233 227 232 229 204 200 217 238 250 238 225 226 230 223 212 199 190 196 209 240 229 199 220 224 233 242 240 226 218 221
222 229 238 237 230 246 245 229 211 216 238 250 250 245 235 234 231 209 210 215 231 242 236 233 232 236 230 219 204 205 206 213 225 230 197 203 211 202 242 231 226 219 223